Regional Weather Roundup
Issued by NWS Green Bay, WI

Home | Current Version | Previous Version | Text Only | Print | Product List | Glossary On
Versions: 1 2 3 4 5 6 7 8 9 10 11 12 13 14 15 16 17 18 19 20 21 22 23 24 25 26 27 28 29 30 31 32 33 34 35 36 37 38 39 40 41 42 43 44 45 46 47 48 49 50
000
ASUS43 KGRB 230410
RWRGRB

NORTH-CENTRAL AND NORTHEAST WISCONSIN REGIONAL WEATHER ROUNDUP
NATIONAL WEATHER SERVICE GREEN BAY WI
1100 PM CDT MON SEP 22 2014

WIZ005-009-010>012-018-019-230500-
NORTH CENTRAL WISCONSIN

CITY           SKY/WX    TMP DP  RH WIND       PRES   REMARKS
IRONWOOD       CLEAR     54  52  94 SW6       30.14R
MANITOWISH WTR CLEAR     46  46 100 CALM      30.18S
ARBOR VITAE    CLEAR     52  49  89 CALM      30.19S
EAGLE RIVER    CLEAR     46  46 100 SW6       30.18S
LAND O LAKES   CLEAR     42  42  99 CALM      30.19R
RHINELANDER    CLEAR     50  48  93 W5        30.20R
PHILLIPS       CLEAR     47  46  97 CALM      30.20R
ANTIGO         CLEAR     50  48  92 W5        30.21S
TOMAHAWK       CLEAR     47  46  95 CALM      30.21S
MERRILL          N/A     45  45  99 CALM      30.21S FOG
$$

WIZ013-073-230500-
NORTHEAST WISCONSIN

CITY           SKY/WX    TMP DP  RH WIND       PRES   REMARKS
IRON MOUNTAIN  CLEAR     50  46  86 CALM      30.14S
MARINETTE      CLEAR     54  48  82 W5        30.17S
OCONTO         CLEAR     48  48 100 CALM      30.18S
$$

WIZ017-030-035>037-045-230500-
CENTRAL WISCONSIN

CITY           SKY/WX    TMP DP  RH WIND       PRES   REMARKS
MEDFORD        CLEAR     51  48  92 CALM      30.21S
WAUSAU         CLEAR     53  49  86 CALM      30.20R
MOSINEE        CLEAR     50  50 100 CALM      30.23R
MARSHFIELD     CLEAR     51  49  92 SW3       30.22R
WISC RAPIDS    CLEAR     48  47  96 CALM      30.23S
STEVENS POINT  CLEAR     46  45  97 CALM      30.23R
WAUPACA        CLEAR     51  50  94 CALM      30.22R
SHAWANO        CLEAR     55  50  83 CALM      30.20S
CLINTONVILLE   CLEAR     48  46  93 CALM      30.21S
$$

WIZ038-039-048-051-230500-
FOX VALLEY

CITY           SKY/WX    TMP DP  RH WIND       PRES   REMARKS
NWS GREEN BAY  CLEAR     51  49  92 SW3       30.20S
APPLETON       CLEAR     52  48  87 W7        30.22R
OSHKOSH        CLEAR     52  49  89 SW6       30.22R
FOND DU LAC    CLEAR     55  49  80 SW6       30.23R
$$

WIZ022-050-052-230500-
EAST CENTRAL WISCONSIN

CITY           SKY/WX    TMP DP  RH WIND       PRES   REMARKS
STURGEON BAY   CLEAR     55  48  76 SW8       30.19S
MANITOWOC      CLEAR     50  49  96 SW3       30.21S
SHEBOYGAN      CLEAR     50  47  89 S3        30.22R
$$

LMZ563-521-522-541>543-230500-
LAKESHORE

STATION/POSITION TIME  TEMP    WIND        PRES    VSBY  WAVE
                       AIR SEA DIR/SP/G                  HT/PER
                 (UTC) (F)     (DEG/KT/KT) (MB)    (MI)  (FT/S)
SHEBOYGAN LKSHOR 0400   57 53  240/  6/  6 1023.8R
KEWAUNEE LKSHORE 0400   55     280/  2/  3 1021.5F
NORTHPORT PIER   0400   59     230/  4/  8 1021.3S
N MID LAKE BUOY  0400   58 57  230/ 16/ 17 1021.0R         3/ 4
S GREEN BAY BUOY 0300   60     VRB 10/ 12  1023.0
CHAMBERS ISLAND  0400   58     200/  5/  9 1021.7S
MENOMINEE LKSHOR 0400   58     240/  8/ 10 1022.2S
$$


USA.gov is the U.S. government's official web portal to all federal, state and local government web resources and services.